Regional Weather Roundup
Issued by NWS

Home | Current Version | Previous Version | Text Only | Print | Product List | Glossary Off
Versions: 1 2 3 4 5 6 7 8 9 10 11 12 13 14 15 16 17 18 19 20 21 22 23 24 25 26 27

000
ASUS45 KCYS 222110
RWRWY

WYOMING REGIONAL WEATHER ROUNDUP
NATIONAL WEATHER SERVICE CHEYENNE WY
300 PM MDT FRI JUL 22 2016

NOTE:  "FAIR" INDICATES FEW OR NO CLOUDS BELOW 12,000 FEET
WITH NO SIGNIFICANT WEATHER AND/OR OBSTRUCTIONS TO VISIBILITY.

WYZ001-222200-
YELLOWSTONE NATIONAL PARK

CITY           SKY/WX    TMP DP  RH WIND       PRES   REMARKS
LK YELLOWSTONE   N/A     79  38  22 MISG      30.34F
W YELLOWSTONE  NOT AVBL

$$
WYZ002>013-054>058-071-098>099-222200-
NORTHERN WYOMING

CITY           SKY/WX    TMP DP  RH WIND       PRES   REMARKS
JACKSON        PTSUNNY   82  46  28 W15G21    30.21F
CODY           FAIR      93  37  14 SE13G26   30.04F
GREYBULL       FAIR     102  34   9 VRB5      29.94F HX  96
WORLAND        FAIR      99  33  10 VRB7      29.97F HX  93
SHERIDAN       FAIR      98  40  13 VRB5      29.95F HX  93
BUFFALO        FAIR      94  37  13 NE8       30.05F
GILLETTE       FAIR      99  34  10 S15G24    30.00F HX  93
HULETT         FAIR      99  39  12 S12G25    30.01F HX  94
NEWCASTLE      FAIR      97  39  13 SE15G24   30.05F HX  92

$$
WYZ014>020-022>026-101>103-222200-
CENTRAL WYOMING

CITY           SKY/WX    TMP DP  RH WIND       PRES   REMARKS
BIG PINEY      FAIR      88  41  19 MISG      30.27F
PINEDALE       FAIR      84  34  16 W7G20     30.28F
DUBOIS         FAIR      79  30  17 SW21      30.28F
LANDER         FAIR      92  40  16 N8        30.09F
RIVERTON       FAIR      92  38  15 CALM      30.12F
CASPER         FAIR      94  43  17 VRB6      30.11F HX  90
DOUGLAS          N/A    N/A N/A N/A MISG      30.08F

$$
WYZ021-027>030-104>119-222200-
SOUTHERN WYOMING

CITY           SKY/WX    TMP DP  RH WIND       PRES   REMARKS
EVANSTON       FAIR      90  35  14 SW28G38   30.30F
KEMMERER       LGT RAIN  84  34  16 W20G28    30.31F
FORT BRIDGER   MOCLDY    80  42  25 E15       30.35S
ROCK SPRINGS   FAIR      87  38  17 SE20G29   30.28F
DIXON          FAIR      89  42  19 NW5       30.30F
RAWLINS        FAIR      91  34  13 W12G18    30.28F
SARATOGA       FAIR      84  36  17 NW13G20   30.31F
LARAMIE        FAIR      81  43  26 VRB7G18   30.32F
CHEYENNE       FAIR      85  48  27 CALM      30.22F
TORRINGTON     FAIR      99  46  16 S9        30.04F HX  95
PINE BLUFFS    FAIR      93  46  20 SE13      30.15F

$$




USA.gov is the U.S. government's official web portal to all federal, state and local government web resources and services.